Wind_Speed
71 71 67 64 66 70 68 67 68 67 67 65 62 62 55 55 48 44 35 34 32 29 28 25 26 30 30 29 27 27 27 25 25 26 26 24 22 23 21 19 18 18 18 17 17
54 52 50 49 50 52 49 57 60 60 57 53 51 48 45 44 45 39 34 34 31 29 29 28 31 36 34 31 28 26 25 25 28 27 26 25 24 24 23 22 22 21 20 20 20
41 39 37 35 37 40 43 49 52 54 53 49 44 40 40 39 34 34 34 34 32 31 32 33 36 39 35 32 29 26 24 26 27 27 27 26 25 24 23 23 24 24 24 23 23
35 29 26 24 26 32 36 42 45 45 46 42 40 37 35 35 36 34 35 35 34 34 34 37 41 40 36 32 29 27 25 27 28 29 28 27 27 26 25 28 28 26 24 24 25
29 25 20 20 23 28 33 36 40 40 40 37 38 37 35 34 36 36 36 36 35 37 38 41 43 41 38 34 32 30 29 28 30 31 31 31 31 30 29 32 31 30 27 28 28
25 23 19 19 23 27 31 35 37 38 37 35 34 35 36 37 37 37 37 38 38 40 42 45 43 42 40 37 35 34 33 32 33 33 35 36 36 34 34 34 35 34 33 32 31
23 20 20 20 23 28 31 35 37 37 35 34 35 36 37 40 39 38 38 40 42 42 45 47 45 44 43 39 39 36 37 38 37 36 38 40 42 40 39 37 38 39 38 36 36
21 20 20 22 25 29 34 37 38 36 35 34 37 39 40 40 39 39 40 42 45 46 46 49 48 46 46 42 42 40 40 41 40 39 42 43 46 44 44 43 42 42 42 41 38
22 20 21 23 28 32 36 38 38 37 38 37 38 40 42 42 41 42 41 42 46 49 48 50 51 50 50 47 44 44 43 41 41 44 45 46 49 48 48 47 46 45 45 45 45
24 23 22 25 29 34 38 41 41 40 41 40 41 42 43 43 43 42 43 44 47 51 52 53 52 52 54 53 51 47 45 47 49 50 48 47 50 52 54 50 51 50 49 49 50
26 26 25 26 29 34 39 42 44 45 44 44 44 45 45 44 44 44 45 46 47 52 55 55 54 58 57 55 54 53 53 52 56 56 51 52 50 56 57 55 56 57 56 55 55
27 28 29 29 30 33 36 40 43 46 46 46 46 46 45 45 45 45 46 47 48 51 55 58 58 61 60 59 59 57 59 58 61 62 57 55 55 59 60 60 60 60 61 62 62
30 28 30 32 32 33 35 37 39 42 43 44 44 44 45 46 46 47 47 48 49 50 54 57 63 64 62 61 61 62 60 63 64 66 63 62 61 62 62 62 64 65 65 65 66
35 32 32 34 35 37 37 38 40 41 41 42 44 45 47 48 47 48 48 49 49 49 49 55 64 67 66 65 67 65 69 67 67 69 69 69 67 66 68 68 69 70 69 69 69
41 37 33 35 36 38 40 41 42 43 42 44 46 48 49 50 50 50 49 50 51 49 50 52 58 64 71 72 71 72 73 74 75 74 73 71 75 72 74 74 74 76 76 76 75
45 43 39 36 38 39 41 42 44 45 44 46 49 51 52 52 52 53 53 53 53 53 53 56 55 58 63 70 74 76 78 79 80 81 79 78 84 76 77 79 80 81 81 82 82
45 47 44 41 39 40 42 43 45 44 48 48 51 53 54 55 56 56 56 57 57 58 59 61 62 63 66 67 70 72 75 79 83 85 84 86 89 83 81 84 85 86 85 86 88
47 46 49 47 45 43 42 44 44 46 51 52 52 53 54 56 58 59 60 61 61 62 63 64 66 67 69 71 74 77 79 81 82 81 83 86 88 88 90 90 90 93 95 94 94
51 48 47 50 49 48 47 45 45 47 49 50 52 55 58 60 62 62 62 62 64 66 68 68 69 71 72 75 77 79 82 84 87 87 89 86 87 89 88 91 94 97 101 102 103
56 53 50 48 51 53 52 51 51 50 49 49 51 54 58 61 62 63 64 65 68 70 72 71 71 74 78 80 82 84 85 88 91 93 93 89 93 93 91 94 95 95 97 100 103
62 59 57 54 51 51 54 55 55 55 55 55 56 57 58 60 61 62 62 64 65 67 70 70 71 70 76 79 81 84 87 91 94 97 98 97 98 98 99 100 101 101 102 103 103
67 64 61 59 58 56 54 53 56 58 59 60 61 62 64 65 66 65 65 68 71 72 72 74 73 72 79 81 83 84 87 91 96 97 100 103 99 98 102 103 104 106 108 110 111
66 69 66 64 64 63 61 60 59 60 61 62 64 66 68 70 70 72 74 76 77 79 79 81 81 83 86 88 90 94 95 98 102 105 106 112 110 110 111 112 114 115 115 115 115
59 62 70 70 69 68 67 66 67 68 69 70 71 72 73 74 77 78 80 83 85 86 88 89 90 93 95 98 100 102 105 108 112 115 117 120 122 122 123 125 125 126 126 126 125
58 59 63 68 73 72 72 73 74 75 76 77 78 80 81 82 84 86 88 90 92 94 95 98 99 101 104 108 110 111 114 117 121 123 124 123 125 126 125 125 125 124 124 125 128
56 57 61 61 66 72 74 75 76 78 80 81 82 84 86 87 90 91 93 96 98 100 103 104 107 108 109 110 109 107 106 109 112 114 116 118 121 124 124 123 122 122 123 124 124
55 52 57 62 62 66 70 75 78 81 83 85 87 89 90 91 91 93 96 98 100 102 104 103 103 104 105 108 108 107 112 111 114 116 119 121 123 124 126 126 126 127 126 126 126
Wind_Direction
275 275 273 273 264 264 260 250 250 250 251 253 254 254 256 257 256 259 256 254 253 250 249 245 237 230 212 207 207 209 209 205 193 190 188 188 192 192 191 198 198 196 197 198 203
279 278 272 267 262 255 250 245 242 244 245 248 250 251 250 250 251 251 247 247 244 240 237 236 231 222 218 213 211 208 206 200 195 194 192 196 199 201 202 205 208 211 210 209 209
282 278 271 263 252 243 238 234 235 236 240 244 246 246 245 243 234 239 241 240 236 233 231 228 226 222 216 214 211 207 202 197 197 200 200 203 208 210 209 218 215 220 219 217 217
287 284 278 263 247 232 229 226 227 228 232 234 241 238 234 235 231 233 236 233 230 228 228 228 225 222 217 212 209 206 202 203 204 206 208 211 217 218 221 227 224 225 229 231 226
292 291 277 258 238 224 221 219 218 219 223 233 233 231 223 226 225 229 230 229 228 226 226 227 221 220 216 213 210 209 206 209 209 212 216 218 222 221 228 232 232 229 231 236 237
290 287 268 248 230 217 212 209 211 214 223 226 223 216 220 223 225 227 225 226 226 225 225 223 220 217 217 215 213 215 213 215 217 218 220 222 227 225 231 234 238 236 236 239 242
283 278 261 244 230 214 207 207 208 213 221 224 217 216 220 223 225 224 223 224 223 224 222 222 220 220 219 219 216 218 222 222 221 223 226 228 227 230 230 235 238 242 244 241 243
271 268 254 239 226 218 212 209 211 217 221 218 213 218 221 224 225 223 224 224 223 223 224 224 223 223 223 223 223 222 226 228 224 228 233 232 234 236 237 234 240 244 247 250 251
260 259 250 239 229 221 216 215 218 221 222 217 218 222 226 225 225 224 225 227 225 224 224 225 226 226 227 228 228 228 229 232 233 233 233 236 242 236 242 240 241 246 250 254 253
253 250 247 238 231 226 222 222 224 226 225 224 225 227 226 226 227 226 227 229 228 227 225 226 228 230 231 231 232 232 236 238 237 234 235 237 246 245 243 243 246 248 250 251 255
252 246 242 239 233 229 228 227 228 230 229 228 228 229 228 228 228 228 229 230 231 230 228 229 229 232 235 236 235 234 236 239 242 238 234 238 245 250 248 247 248 248 249 252 254
251 245 240 237 235 232 230 231 233 235 233 232 230 231 229 228 230 232 233 233 235 234 233 231 231 235 236 237 238 238 238 241 245 243 236 242 244 249 251 251 252 252 253 253 252
246 246 242 238 236 233 234 234 235 235 234 234 232 231 230 231 233 234 235 236 238 238 237 236 236 239 239 239 240 242 241 242 244 247 244 241 245 249 252 252 255 255 255 256 256
243 242 242 240 237 236 234 234 235 235 234 234 235 234 234 236 237 236 237 239 242 242 243 241 241 241 242 241 241 242 244 243 244 246 247 244 242 247 251 254 255 257 258 258 258
241 241 241 242 240 237 237 236 235 235 234 236 236 238 238 239 240 241 241 242 244 245 246 245 245 247 246 246 246 245 246 247 246 247 247 250 250 247 248 252 256 258 257 258 259
240 241 241 241 242 241 240 239 239 237 236 238 239 239 242 243 244 244 245 246 246 248 249 251 250 251 252 252 252 251 251 251 251 250 249 249 252 248 250 254 255 257 258 258 260
241 239 240 242 242 243 242 242 242 241 240 239 241 242 242 244 246 247 247 248 249 248 248 251 252 252 253 255 256 256 255 255 255 256 255 252 253 253 252 252 254 256 258 260 260
241 241 239 241 242 242 244 245 246 245 244 242 244 247 249 248 247 248 248 250 252 253 253 254 254 255 255 257 258 259 259 259 257 257 256 257 257 255 254 254 254 253 256 258 259
236 240 242 241 241 244 244 245 246 247 248 249 250 250 251 251 252 252 252 252 253 254 255 256 258 259 260 260 261 262 263 263 263 262 260 260 261 259 258 258 257 256 256 256 257
235 237 240 243 243 244 245 247 249 250 250 250 250 250 251 253 255 255 257 258 257 258 258 257 257 261 262 263 264 264 264 265 266 265 263 263 262 262 261 261 261 260 260 259 259
234 237 239 241 243 245 245 247 249 250 250 251 251 252 253 253 254 254 255 256 258 259 260 261 261 261 264 264 265 265 266 267 267 268 269 266 265 265 263 262 261 261 261 261 261
234 235 237 241 244 244 245 247 248 250 251 252 252 251 252 253 254 254 253 254 257 258 259 261 260 261 263 264 265 267 269 271 273 272 272 271 267 267 266 266 265 264 263 262 262
237 236 238 240 244 245 246 247 246 247 248 250 251 253 254 255 256 258 258 259 259 261 262 263 264 263 263 264 266 267 268 268 269 270 271 272 272 270 270 270 270 269 268 266 264
239 240 240 242 244 246 248 250 251 252 253 254 256 257 259 260 261 260 262 263 264 264 265 266 267 267 267 267 266 267 268 268 269 270 270 271 271 271 271 271 270 269 268 267 266
239 242 243 244 244 247 250 252 254 256 256 258 259 260 262 263 264 265 265 266 266 267 269 269 269 270 272 273 272 272 271 271 271 272 273 273 273 272 271 271 270 270 269 268 267
239 241 246 247 248 247 249 250 252 255 256 259 261 263 264 265 266 267 268 269 269 269 269 269 270 271 273 274 274 274 273 273 273 274 274 274 274 274 274 274 273 272 269 267 265
239 240 244 246 248 249 251 253 255 256 259 261 262 264 266 267 268 269 269 270 270 271 272 273 273 274 274 275 276 278 277 278 277 276 276 276 277 278 278 277 276 274 272 271 269
Height
10618 10617 10616 10616 10619 10623 10624 10628 10635 10640 10644 10649 10655 10658 10664 10668 10671 10675 10677 10681 10682 10684 10686 10687 10689 10692 10693 10695 10695 10697 10700 10702 10704 10706 10709 10711 10714 10716 10719 10722 10723 10724 10726 10729 10731
10605 10603 10602 10601 10602 10604 10608 10614 10621 10627 10634 10639 10644 10649 10655 10657 10662 10667 10671 10674 10675 10677 10680 10682 10685 10688 10690 10692 10693 10695 10697 10700 10702 10704 10707 10710 10712 10715 10717 10719 10720 10722 10724 10726 10728
10595 10592 10590 10588 10588 10592 10597 10603 10610 10618 10625 10631 10636 10641 10646 10649 10654 10660 10663 10667 10669 10671 10674 10677 10681 10684 10686 10688 10690 10692 10695 10697 10700 10702 10705 10707 10710 10712 10715 10715 10717 10718 10720 10723 10724
10586 10583 10580 10580 10582 10584 10589 10596 10603 10610 10617 10623 10628 10633 10637 10642 10648 10652 10656 10660 10662 10666 10669 10672 10676 10680 10682 10684 10686 10688 10692 10694 10697 10700 10702 10704 10707 10709 10711 10710 10713 10715 10717 10718 10720
10578 10576 10574 10575 10576 10579 10584 10590 10596 10603 10610 10616 10621 10626 10630 10635 10640 10644 10649 10653 10656 10660 10663 10667 10671 10675 10677 10680 10682 10684 10688 10690 10693 10696 10698 10700 10702 10704 10706 10705 10707 10710 10713 10714 10716
10573 10571 10572 10573 10574 10576 10580 10585 10592 10598 10604 10609 10614 10619 10623 10628 10633 10637 10642 10645 10649 10653 10657 10661 10665 10669 10671 10673 10676 10679 10682 10685 10688 10691 10693 10695 10696 10699 10699 10700 10701 10704 10706 10708 10710
10569 10568 10568 10569 10571 10573 10576 10581 10587 10592 10598 10603 10607 10612 10617 10621 10626 10630 10635 10638 10642 10646 10650 10654 10658 10662 10665 10667 10669 10673 10675 10677 10682 10685 10686 10688 10688 10691 10692 10694 10695 10696 10698 10701 10703
10564 10564 10565 10566 10568 10571 10573 10577 10582 10587 10592 10596 10601 10605 10610 10614 10619 10623 10627 10631 10635 10639 10643 10648 10652 10655 10657 10659 10662 10665 10667 10670 10676 10679 10680 10681 10680 10684 10684 10687 10687 10689 10692 10696 10701
10559 10559 10560 10562 10565 10567 10570 10574 10578 10582 10586 10590 10595 10599 10603 10608 10611 10615 10620 10624 10628 10631 10636 10640 10644 10647 10649 10650 10654 10657 10661 10666 10668 10668 10671 10673 10670 10675 10675 10680 10684 10684 10685 10687 10690
10553 10554 10555 10557 10559 10562 10565 10569 10572 10576 10580 10584 10588 10592 10596 10600 10603 10608 10612 10616 10620 10624 10628 10632 10636 10638 10635 10641 10646 10653 10654 10653 10654 10657 10662 10667 10661 10665 10666 10673 10673 10676 10678 10678 10678
10546 10548 10550 10552 10554 10556 10560 10563 10567 10570 10574 10577 10581 10584 10589 10592 10596 10600 10604 10607 10611 10615 10619 10625 10628 10620 10628 10636 10638 10640 10643 10644 10640 10645 10655 10656 10657 10651 10656 10663 10663 10664 10666 10667 10668
10539 10541 10544 10546 10548 10550 10553 10556 10559 10562 10566 10569 10572 10576 10580 10584 10588 10592 10596 10599 10602 10606 10610 10614 10615 10613 10617 10623 10628 10630 10631 10632 10629 10633 10645 10646 10647 10640 10644 10648 10650 10651 10652 10654 10656
10532 10534 10536 10538 10541 10543 10545 10548 10551 10554 10558 10561 10565 10569 10572 10576 10580 10583 10587 10590 10593 10596 10600 10606 10603 10603 10607 10611 10615 10616 10620 10618 10622 10620 10628 10632 10631 10632 10633 10635 10633 10635 10638 10639 10641
10524 10526 10528 10530 10533 10536 10537 10540 10543 10546 10551 10555 10559 10561 10564 10566 10571 10574 10577 10579 10582 10586 10591 10593 10591 10592 10594 10596 10599 10602 10599 10604 10604 10606 10610 10614 10618 10620 10619 10619 10620 10620 10622 10624 10624
10516 10518 10520 10522 10525 10527 10529 10531 10534 10538 10544 10547 10549 10551 10553 10556 10559 10563 10566 10569 10571 10575 10577 10578 10579 10581 10580 10579 10585 10587 10586 10587 10589 10591 10597 10602 10597 10606 10604 10606 10606 10603 10604 10607 10608
10505 10509 10512 10514 10515 10518 10520 10522 10525 10530 10535 10536 10537 10540 10542 10545 10547 10550 10554 10557 10560 10562 10565 10564 10568 10568 10566 10566 10566 10569 10569 10569 10571 10573 10582 10583 10570 10593 10592 10589 10589 10587 10588 10589 10590
10494 10498 10502 10504 10506 10508 10510 10512 10516 10521 10522 10526 10525 10527 10530 10534 10535 10537 10541 10544 10546 10548 10550 10549 10551 10552 10550 10550 10549 10551 10552 10550 10550 10554 10562 10561 10557 10573 10577 10574 10572 10569 10569 10568 10567
10483 10486 10490 10494 10496 10498 10500 10503 10507 10508 10509 10513 10515 10517 10519 10521 10523 10525 10527 10530 10532 10534 10535 10537 10535 10535 10536 10535 10533 10531 10530 10528 10528 10536 10538 10538 10542 10551 10549 10550 10552 10549 10545 10544 10545
10470 10474 10478 10481 10485 10487 10490 10494 10495 10496 10500 10502 10503 10505 10506 10506 10507 10509 10514 10517 10518 10518 10517 10520 10521 10519 10520 10516 10515 10514 10510 10509 10507 10512 10513 10522 10521 10522 10528 10527 10525 10526 10525 10524 10523
10457 10462 10466 10469 10472 10476 10479 10483 10484 10486 10488 10489 10489 10491 10490 10491 10493 10495 10498 10500 10499 10499 10499 10505 10509 10504 10498 10496 10495 10493 10491 10488 10482 10482 10486 10500 10492 10496 10504 10500 10500 10501 10501 10501 10501
10443 10449 10453 10457 10460 10463 10465 10469 10471 10473 10474 10475 10475 10477 10476 10476 10477 10479 10483 10482 10480 10479 10481 10484 10487 10488 10477 10476 10477 10471 10468 10464 10459 10454 10456 10467 10468 10473 10473 10472 10471 10471 10471 10471 10472
10427 10433 10440 10444 10447 10449 10451 10455 10457 10458 10459 10459 10460 10461 10460 10461 10460 10462 10464 10463 10461 10462 10464 10463 10467 10469 10459 10457 10455 10452 10446 10439 10431 10433 10429 10426 10441 10446 10439 10438 10437 10437 10438 10440 10441
10412 10419 10425 10429 10432 10435 10437 10439 10441 10442 10443 10444 10444 10443 10443 10444 10446 10445 10445 10445 10445 10444 10445 10444 10445 10446 10442 10439 10435 10429 10426 10421 10411 10408 10408 10393 10401 10404 10404 10404 10402 10401 10402 10403 10405
10398 10404 10409 10414 10416 10419 10422 10424 10425 10426 10427 10427 10427 10427 10426 10426 10426 10428 10424 10423 10422 10422 10420 10420 10420 10416 10414 10412 10411 10409 10404 10395 10386 10380 10376 10371 10367 10367 10366 10367 10366 10365 10365 10364 10365
10383 10388 10390 10395 10399 10403 10405 10406 10407 10407 10408 10408 10408 10407 10407 10407 10404 10403 10403 10400 10397 10396 10393 10391 10393 10389 10383 10379 10379 10380 10374 10366 10355 10344 10336 10338 10330 10327 10327 10325 10325 10324 10324 10324 10323
10368 10372 10374 10380 10382 10384 10385 10386 10387 10387 10387 10386 10388 10386 10385 10384 10382 10381 10378 10373 10371 10368 10366 10366 10361 10361 10359 10349 10344 10347 10343 10332 10324 10317 10308 10299 10292 10286 10285 10283 10281 10277 10276 10277 10277
10352 10356 10358 10361 10364 10365 10366 10367 10369 10369 10368 10367 10365 10364 10362 10360 10357 10355 10352 10347 10343 10339 10335 10334 10331 10328 10327 10317 10314 10313 10301 10299 10291 10282 10274 10267 10259 10250 10241 10238 10235 10230 10229 10229 10230